• In Belarus
  • List of Countries
  • For 7 days
  • Water Temperature
  • Satellite Maps
  • Weather Map
  • Weather Widgets
  • user-avatar
    Login

    Hourly Weather Baku

    Today, 17 January, Thursday

    Time Temperature Precipitation Wind Pressure Humidity
    00:00 +4°C° 0 mm 13 mps 754 mmHg 80%
    01:00 +4°C° 0 mm 13 mps 754 mmHg 79%
    02:00 +4°C° 0 mm 14 mps 754 mmHg 79%
    03:00 +2°C° 0 mm 15 mps 755 mmHg 78%
    04:00 +2°C° 0.2 mm 15 mps 755 mmHg 78%
    05:00 +2°C° 0.2 mm 15 mps 756 mmHg 78%
    06:00 +1°C° 0.2 mm 15 mps 756 mmHg 78%
    07:00 +1°C° 0.4 mm 16 mps 756 mmHg 77%
    08:00 +1°C° 0.4 mm 16 mps 756 mmHg 75%
    09:00 +1°C° 0.4 mm 16 mps 757 mmHg 74%
    10:00 +1°C° 0.5 mm 17 mps 757 mmHg 74%
    11:00 +1°C° 0.5 mm 17 mps 757 mmHg 73%
    12:00 +1°C° 0.5 mm 18 mps 757 mmHg 73%
    13:00 +1°C° 0.8 mm 18 mps 757 mmHg 74%
    14:00 +1°C° 0.8 mm 17 mps 758 mmHg 74%
    15:00 +1°C° 0.8 mm 17 mps 758 mmHg 75%
    16:00 -1°C° 0.1 mm 18 mps 759 mmHg 75%
    17:00 -1°C° 0.1 mm 19 mps 759 mmHg 74%
    18:00 -1°C° 0.1 mm 19 mps 760 mmHg 74%
    19:00 -1°C° 0 mm 19 mps 760 mmHg 73%
    20:00 -1°C° 0 mm 18 mps 761 mmHg 73%
    21:00 0°C° 0 mm 17 mps 761 mmHg 73%
    22:00 0°C° 0 mm 17 mps 762 mmHg 72%
    23:00 0°C° 0 mm 17 mps 762 mmHg 71%

    Tomorrow, 18 January, Friday

    Time Temperature Precipitation Wind Pressure Humidity
    00:00 0°C° 0 mm 17 mps 763 mmHg 70%
    01:00 0°C° 0 mm 16 mps 763 mmHg 69%
    02:00 0°C° 0 mm 15 mps 763 mmHg 68%
    03:00 0°C° 0 mm 14 mps 764 mmHg 66%
    04:00 0°C° 0 mm 14 mps 764 mmHg 65%
    05:00 0°C° 0 mm 13 mps 765 mmHg 65%
    06:00 0°C° 0 mm 13 mps 765 mmHg 64%
    07:00 0°C° 0 mm 13 mps 765 mmHg 62%
    08:00 0°C° 0 mm 12 mps 766 mmHg 61%
    09:00 +2°C° 0 mm 12 mps 766 mmHg 59%
    10:00 +2°C° 0 mm 11 mps 766 mmHg 57%
    11:00 +3°C° 0 mm 10 mps 766 mmHg 56%
    12:00 +3°C° 0 mm 10 mps 766 mmHg 54%
    13:00 +3°C° 0 mm 9 mps 766 mmHg 55%
    14:00 +4°C° 0 mm 8 mps 767 mmHg 55%
    15:00 +4°C° 0 mm 8 mps 767 mmHg 56%
    16:00 +4°C° 0 mm 8 mps 767 mmHg 58%
    17:00 +3°C° 0 mm 7 mps 768 mmHg 60%
    18:00 +3°C° 0 mm 7 mps 768 mmHg 62%
    19:00 +3°C° 0 mm 6 mps 768 mmHg 63%
    20:00 +3°C° 0 mm 6 mps 768 mmHg 64%
    21:00 +3°C° 0 mm 5 mps 768 mmHg 64%
    22:00 +4°C° 0 mm 4 mps 768 mmHg 65%
    23:00 +3°C° 0 mm 4 mps 768 mmHg 66%

    Day after tomorrow, 19 January, Saturday

    Time Temperature Precipitation Wind Pressure Humidity
    00:00 +3°C° 0 mm 3 mps 767 mmHg 67%
    01:00 +4°C° 0 mm 2 mps 767 mmHg 69%
    02:00 +4°C° 0 mm 2 mps 767 mmHg 70%
    03:00 +5°C° 0 mm 1 mps 767 mmHg 72%
    04:00 +5°C° 0 mm 1 mps 767 mmHg 74%
    05:00 +5°C° 0 mm 1 mps 767 mmHg 76%
    06:00 +5°C° 0 mm 1 mps 766 mmHg 78%
    07:00 +5°C° 0 mm 1 mps 767 mmHg 75%
    08:00 +6°C° 0 mm 1 mps 767 mmHg 73%
    09:00 +7°C° 0 mm 1 mps 767 mmHg 70%
    10:00 +7°C° 0 mm 1 mps 766 mmHg 67%
    11:00 +7°C° 0 mm 1 mps 766 mmHg 65%
    12:00 +8°C° 0 mm 1 mps 766 mmHg 62%
    13:00 +8°C° 0 mm 1 mps 765 mmHg 60%
    14:00 +8°C° 0 mm 1 mps 765 mmHg 58%
    15:00 +9°C° 0 mm 1 mps 765 mmHg 57%
    16:00 +8°C° 0 mm 1 mps 765 mmHg 59%
    17:00 +8°C° 0 mm 1 mps 765 mmHg 61%
    18:00 +7°C° 0 mm 2 mps 765 mmHg 64%
    19:00 +8°C° 0 mm 1 mps 765 mmHg 66%
    20:00 +7°C° 0 mm 1 mps 765 mmHg 68%
    21:00 +7°C° 0 mm 1 mps 765 mmHg 70%
    22:00 +7°C° 0 mm 1 mps 765 mmHg 71%
    23:00 +7°C° 0 mm 1 mps 765 mmHg 72%

    20 January, Sunday

    Time Temperature Precipitation Wind Pressure Humidity
    00:00 +6°C° 0 mm 1 mps 765 mmHg 73%
    01:00 +6°C° 0 mm 1 mps 765 mmHg 73%
    02:00 +6°C° 0 mm 1 mps 765 mmHg 72%
    03:00 +6°C° 0 mm 1 mps 765 mmHg 72%
    04:00 +6°C° 0 mm 1 mps 765 mmHg 71%
    05:00 +6°C° 0 mm 1 mps 765 mmHg 70%
    06:00 +6°C° 0 mm 1 mps 766 mmHg 69%
    07:00 +6°C° 0 mm 1 mps 766 mmHg 66%
    08:00 +7°C° 0 mm 1 mps 766 mmHg 63%
    09:00 +8°C° 0 mm 1 mps 767 mmHg 60%
    10:00 +8°C° 0 mm 1 mps 767 mmHg 57%
    11:00 +9°C° 0 mm 1 mps 767 mmHg 53%
    12:00 +9°C° 0 mm 1 mps 767 mmHg 50%
    13:00 +10°C° 0 mm 1 mps 766 mmHg 49%
    14:00 +10°C° 0 mm 1 mps 766 mmHg 48%
    15:00 +10°C° 0 mm 1 mps 766 mmHg 47%
    16:00 +9°C° 0 mm 1 mps 766 mmHg 50%
    17:00 +9°C° 0 mm 1 mps 767 mmHg 53%
    18:00 +8°C° 0 mm 1 mps 767 mmHg 57%
    19:00 +8°C° 0 mm 1 mps 767 mmHg 59%
    20:00 +8°C° 0 mm 1 mps 767 mmHg 61%
    21:00 +7°C° 0 mm 1 mps 768 mmHg 63%
    22:00 +7°C° 0 mm 1 mps 768 mmHg 64%
    23:00 +7°C° 0 mm 1 mps 768 mmHg 65%

    21 January, Monday

    Time Temperature Precipitation Wind Pressure Humidity
    00:00 +7°C° 0 mm 1 mps 768 mmHg 66%
    01:00 +6°C° 0 mm 1 mps 768 mmHg 67%
    02:00 +6°C° 0 mm 1 mps 768 mmHg 68%
    03:00 +6°C° 0 mm 1 mps 768 mmHg 69%
    04:00 +6°C° 0 mm 1 mps 768 mmHg 70%
    05:00 +6°C° 0 mm 1 mps 768 mmHg 71%
    06:00 +5°C° 0 mm 1 mps 768 mmHg 73%
    07:00 +5°C° 0 mm 0 mps 768 mmHg 69%
    08:00 +6°C° 0 mm 0 mps 768 mmHg 65%
    09:00 +7°C° 0 mm 0 mps 768 mmHg 62%
    10:00 +9°C° 0 mm 1 mps 767 mmHg 57%
    11:00 +9°C° 0 mm 1 mps 767 mmHg 52%
    12:00 +9°C° 0 mm 2 mps 767 mmHg 47%
    13:00 +9°C° 0 mm 3 mps 766 mmHg 46%
    14:00 +8°C° 0 mm 4 mps 766 mmHg 45%
    15:00 +8°C° 0 mm 4 mps 765 mmHg 44%
    16:00 +8°C° 0 mm 4 mps 765 mmHg 49%
    17:00 +8°C° 0 mm 5 mps 765 mmHg 54%
    18:00 +7°C° 0 mm 5 mps 765 mmHg 59%
    19:00 +7°C° 0 mm 5 mps 765 mmHg 62%
    20:00 +7°C° 0 mm 5 mps 765 mmHg 65%
    21:00 +7°C° 0 mm 5 mps 765 mmHg 68%
    22:00 +7°C° 0 mm 5 mps 764 mmHg 67%
    23:00 +7°C° 0 mm 5 mps 764 mmHg 66%

    22 January, Tuesday

    Time Temperature Precipitation Wind Pressure Humidity
    00:00 +5°C° 0 mm 6 mps 764 mmHg 64%
    01:00 +5°C° 0 mm 6 mps 763 mmHg 63%
    02:00 +5°C° 0 mm 6 mps 763 mmHg 61%
    03:00 +5°C° 0 mm 6 mps 763 mmHg 59%
    04:00 +5°C° 0 mm 7 mps 763 mmHg 54%
    05:00 +4°C° 0 mm 8 mps 762 mmHg 49%
    06:00 +4°C° 0 mm 8 mps 762 mmHg 44%
    07:00 +3°C° 0 mm 9 mps 763 mmHg 40%
    08:00 +3°C° 0 mm 9 mps 763 mmHg 36%
    09:00 +3°C° 0 mm 9 mps 763 mmHg 31%
    10:00 +6°C° 0 mm 9 mps 763 mmHg 30%
    11:00 +7°C° 0 mm 8 mps 763 mmHg 29%
    12:00 +9°C° 0 mm 7 mps 762 mmHg 28%
    13:00 +9°C° 0 mm 6 mps 763 mmHg 29%
    14:00 +9°C° 0 mm 5 mps 763 mmHg 30%
    15:00 +10°C° 0 mm 5 mps 763 mmHg 32%
    16:00 +9°C° 0 mm 6 mps 763 mmHg 40%
    17:00 +7°C° 0 mm 8 mps 764 mmHg 49%
    18:00 +6°C° 0 mm 10 mps 764 mmHg 57%
    19:00 +6°C° 0 mm 10 mps 765 mmHg 61%
    20:00 +4°C° 0 mm 11 mps 765 mmHg 65%
    21:00 +4°C° 0 mm 11 mps 765 mmHg 69%
    22:00 +4°C° 0 mm 11 mps 765 mmHg 72%
    23:00 +5°C° 0 mm 10 mps 766 mmHg 74%
    Show more